Regional Weather Roundup
Issued by NWS San Diego, CA

Home | Current Version | Previous Version | Text Only | Print | Product List | Glossary On
Versions: 1 2 3 4 5 6 7 8 9 10 11 12 13 14 15 16 17 18 19 20 21 22 23 24 25 26 27
000
ASUS46 KSGX 250410
RWRSGX

SAN DIEGO HOURLY WEATHER ROUNDUP
NATIONAL WEATHER SERVICE SAN DIEGO CA
900 PM PDT WED AUG 24 2016

NOTE: "FAIR" INDICATES FEW OR NO CLOUDS BELOW 12,000 FEET WITH NO
SIGNIFICANT WEATHER AND/OR OBSTRUCTIONS TO VISIBILITY.

CAZ042-043-060-061-PZZ750-775-250500-

GREATER SAN DIEGO AREA

CITY           SKY/WX    TMP DP  RH WIND       PRES   REMARKS
LINDBERGH FLD  PTCLDY    70  64  81 NW6       29.98R
POINT LOMA       N/A     68  64  85 W10         N/A
NATIONAL CITY    N/A     71  66  84 W2        29.98R
CHULA VISTA      N/A     70  66  89 W2        29.90R
IMPERIAL BEACH MOCLDY    71  64  78 VRB3      29.98R
BROWN FIELD    PTCLDY    67  64  90 W5        29.98R
MIRAMAR MCAS   PTCLDY    68  62  81 W3        29.97R
MONTGOMERY FLD CLEAR     69  63  81 W5        29.98R

$$

NORTH SAN DIEGO COUNTY

CITY           SKY/WX    TMP DP  RH WIND       PRES   REMARKS
CAMP PENDLETON PTCLDY    64  64 100 CALM      29.96R
OCEANSIDE AP   CLOUDY    70  63  78 SW5       29.95R
OCEANSIDE HBR    N/A     70  67  90 CALM      29.98R
VISTA            N/A     70  64  81 CALM      29.93R
CARLSBAD       MOCLDY    69  66  90 W5        29.96R
DEL MAR          N/A     69  65  88 CALM      29.99R
LA JOLLA SCRIP   N/A     69  66  90 W2        29.96R
FALLBROOK        N/A     69  66  88 CALM      29.95R
ESCONDIDO        N/A     73  62  69 CALM      29.98R
SAN MARCOS       N/A     70  61  74 CALM      29.99R
POWAY            N/A     69  63  79 CALM      29.97R

$$

EAST SAN DIEGO COUNTY

CITY           SKY/WX    TMP DP  RH WIND       PRES   REMARKS
RAMONA         CLEAR     68  55  63 W3        30.00R
SANTEE LAKES     N/A     70  63  77 CALM      29.95R
LA MESA          N/A     70  63  79 CALM      29.89R
JAMUL            N/A     69  62  78 CALM      29.96R
DESCANSO N       N/A     65  51  62 NE3       29.87R
MT. LAGUNA OBS   N/A     69  34  27 W2        29.80R
CAMPO            N/A     71  57  61 S7        30.01R

$$

ORANGE COUNTY AND THE LOS ANGELES BASIN

CITY           SKY/WX    TMP DP  RH WIND       PRES   REMARKS
JOHN WAYNE AP  CLEAR     70  63  78 SW5       29.95R
LAGUNA BEACH     N/A    N/A N/A N/A CALM      29.91R
LAKE FOREST FR   N/A     69  59  71 CALM      29.84R
HUNTINGTON BCH   N/A     67  64  89 W12       29.96R
LOS ALAMITOS   PTCLDY    70  61  74 W3        29.94R
FULLERTON      CLEAR     73  60  63 W3        29.94R
LONG BEACH     CLEAR     69  62  78 W8        29.95R
L.A. AP        CLEAR     65  58  78 W6        29.95R
L.A. DOWNTOWN  CLEAR     68  60  75 CALM      29.95R

$$

THE INLAND EMPIRE

CITY           SKY/WX    TMP DP  RH WIND       PRES   REMARKS
CORONA         CLEAR     74  58  57 NW9       29.95R
CHINO          CLEAR     75  57  53 W10       29.96R
ONTARIO        CLEAR     76  54  46 W9        29.96R
SAN BERNARDINO CLEAR     81  57  44 SW7       29.97R
RIVERSIDE AP   CLEAR     77  56  48 W8        29.96R
MORENO VALLEY    N/A     77  63  60 NW5       28.07R
MARCH ARB      CLEAR     75  55  49 NW6       29.98R
HORSETHIEF CYN   N/A     76  54  47 CALM      29.96R
PERRIS           N/A     79  58  48 W3        29.97R
HEMET EAST       N/A     79  48  33 CALM      29.82R
FRENCH VALLEY  FAIR      73  59  60 S3        29.99R
TEMECULA         N/A     74  59  59 S2        30.03R

$$

SAN BERNARDINO AND RIVERSIDE COUNTY MOUNTAINS

CITY           SKY/WX    TMP DP  RH WIND       PRES   REMARKS
BIG BEAR AP    CLEAR     64  32  29 SW5       30.30R
PINE COVE        N/A     67  36  31 N1        29.92R

$$

SOUTHERN DESERT INCLUDING THE COACHELLA VALLEY

CITY           SKY/WX    TMP DP  RH WIND       PRES   REMARKS
PALM SPRINGS   CLEAR     97  51  21 NW15      29.82R
THOUSAND PALMS   N/A     94  55  26 NW9       29.77R
PALM DESERT      N/A     96  56  26 CALM      27.74S
THERMAL        CLEAR     92  55  28 N7        29.75R
BLYTHE         CLEAR    100  56  23 S17       29.81R HX  99
IMPERIAL AP    CLEAR     98  60  28 S13       29.78R HX  98
EL CENTRO NAS  PTCLDY    95  57  27 SE15      29.80R
YUMA AZ        CLEAR     92  59  33 S9        29.83
MEXICALI       CLEAR     91  57  31 SE10      29.81R

$$

UPPER DESERT

CITY           SKY/WX    TMP DP  RH WIND       PRES   REMARKS
VICTORVILLE AP CLEAR     81  39  22 S10       30.02R
HESPERIA         N/A     78  48  34 W6        29.98R
PALMDALE       CLEAR     82  47  29 W9        30.00R
LANCASTER      CLEAR     82  40  22 W15       29.98R
EDWARDS AFB    CLEAR     83  37  19 SW12      29.95R
DAGGETT        CLEAR     91  40  16 W16       29.91R
29 PALMS N     CLEAR     90  34  13 SW13      29.97R
NEEDLES        PTCLDY   100  43  14 SW12      29.81R HX  96

$$

REGIONAL REPORTS

CITY           SKY/WX    TMP DP  RH WIND       PRES   REMARKS
SANTA BARBARA  CLEAR     65  61  87 SE8       29.92R
SANDBERG       CLEAR     76  37  24 NW7G24    30.15S
LAS VEGAS NV   PTCLDY    94  30  10 SW7       29.85R
PHOENIX AZ     MOCLDY    91  51  25 NE5       29.85F
TIJUANA        PTCLDY    68  61  77 W6        29.99R
ENSENADA NW      N/A     69  32  25 E3        29.92R

$$

OFFSHORE ISLANDS

CITY           SKY/WX    TMP DP  RH WIND       PRES   REMARKS
CATALINA ARPT  PTCLDY    60  58  92 W8        29.99S
SAN NICOLAS IS CLEAR    N/A N/A N/A W17       29.97R

$$

MARINE AND OFFSHORE BUOY REPORTS

STATION/POSITION SKY/WX   TEMP    WIND        PRES    SWELL
                          AIR SEA DIR/SP/G            HT/PER/DIR
                          (F)     (DEG/KT/KT) (MB)    (FT/S/D)

$$





USA.gov is the U.S. government's official web portal to all federal, state and local government web resources and services.